EHI
0 0 0 0 0 0 0 0 0 0 0 0 0 0 0 0 0 0 0 0 0 0 0 0 0 0 0 0 0 0 0 0 0 0 0 0 0 0 0 0 0 0 0 0
0 0 0 0 0 0 0 0 0 0 0 0 0 0 0 0 0 0 0 0 0 0 0 0 0 0 0 0 0 0 0 0 0 0 0 0 0 0 0 0 0 0 0 0
0 0 0 0 0 0 0 0 0 0 0 0 0 0 0 0 0 0 0 0 0 0 0 0 0 0 0 0 0 0 0 0 0 0 0 0 0 0 0 0 0 0 0 0
0 0 0 0 0 0 0 0 0 0 0 0 0 0 0 0 0 0 0 0 0 0 0 0 0 0 0 0 0 0 0 0 0 0 0 0 0 0 0 0 0 0 0 0
0 0 0 0 0 0 0 0 0 0 0 0 0 0 0 0 0 0 0 0 0 0 0 0 0 0 0 0 0 0 0 0 0 0 0 0 0 0 0 0 0 0 0 0
0 0 0 0 0 0 0 0 0 0 0 0 0 0 0 0 0 0 0 0 0 0 0 0 0 0 0 0 0 0 0 0 0 0 0 0 0 0 0 0 0 0 0 0
0 0 0 0 0 0 0 0 0 0 0 0 0 0 0 0 0 0 0 0 0 0 0 0 0 0 0 0 0 0 0 0 0 0 0 0 0 0 0 0 0 0 0 0
0 0 0 0 0 0 0 0 0 0 0 0 0 0 0 0 0 0 0 0 0 0 0 0 0 0 0 0 0 0 0 0 0 0 0 0 0 0 0 0 0 0 0 0
0 0 0 0 0 0 0 0 0 0 0 0 0 0 0 0 0 0 0 0 0 0 0 0 0 0 0 0 0 0 0 0 0 0 0 0 0 0 0 0 0 0 0 0
0 0 0 0 0 0 0 0 0 0 0 0 0 0 0 0 0 0 0 0 0 0 0 0 0 0 0 0 0 0 0 0 0 0 0 0 0 0 0 0 0 0 0 0
0 0 0 0 0 0 0 0 0 0 0 0 0 0 0 0 0 0 0 0 0 0 0 0 0 0 0 0 0 0 0 0 0 0 0 0 0 0 0 0 0 0 0 0
0 0 0 0 0 0 0 0 0 0 0 0 0 0 0 0 0 0 0 0 0 0 0 0 0 0 0 0 0 0 0 0 0 0 0 0 0 0 0 0 0 0 0 0
0 0 0 0 0 0 0 0 0 0 0 0 0 0 0 0 0 0 0 0 0 0 0 0 0 0 0 0 0 0 0 0 0 0 0 0 0 0 0 0 0 0 0 0
0 0 0 0 0 0 0 0 0 0 0 0 0 0 0 0 0 0 0 0 0 0 0 0 0 0 0 0 0 0 0 0 0 0 0 0 0 0 0 0 0 0 0 0
0 0 0 0 0 0 0 0 0 0 0 0 0 0 0 0 0 0 0 0 0 0 0 0 0 0 0 0 0 0 0 0 0 0 0 0 0 0 0 0 0 0 0 0
0 0 0 0 0 0 0 0 0 0 0 0 0 0 0 0 0 0 0 0 0 0 0 0 0 0 0 0 0 0 0 0 0 0 0 0 0 0 0 0 0 0 0 0
0 0 0 0 0 0 0 0 0 0 0 0 0 0 0 0 0 0 0 0 0 0 0 0 0 0 0 0 0 0 0 0 0 0 0 0 0 0 0 0 0 0 0 0
0 0 0 0 0 0 0 0 0 0 0 0 0 0 0 0 0 0 0 0 0 0 0 0 0 0 0 0 0 0 0 0 0 0 0 0 0 0 0 0 0 0 0 0
0 0 0 0 0 0 0 0 0 0 0 0 0 0 0 0 0 0 0 0 0 0 0 0 0 0 0 0 0 0 0 0 0 0 0 0 0 0 0 0 0 0 0 0
0 0 0 0 0 0 0 0 0 0 0 0 0 0 0 0 0 0 0 0 0 0 0 0 0 0 0 0 0 0 0 0 0 0 0 0 0 0 0 0 0 0 0 0
0 0 0 0 0 0 0 0 0 0 0 0 0 0 0 0 0 0 0 0 0 0 0 0 0 0 0 0 0 0 0 0 0 0 0 0 0 0 0 0 0 0 0 0
0 0 0 0 0 0 0 0 0 0 0 0 0 0 0 0 0 0 0 0 0 0 0 0 0 0 0 0 0 0 0 0 0 0 0 0 0 0 0 0 0 0 0 0
0 0 0 0 0 0 0 0 0 0 0 0 0 0 0 0 0 0 0 0 0 0 0 0 0 0 0 0 0 0 0 0 0 0 0 0 0 0 0 0 0 0 0 0
0 0 0 0 0 0 0 0 0 0 0 0 0 0 0 0 0 0 0 0 0 0 0 0 0 0 0 0 0 0 0 0 0 0 0 0 0 0 0 0 0 0 0 0
0 0 0 0 0 0 0 0 0 0 0 0 0 0 0 0 0 0 0 0 0 0 0 0 0 0 0 0 0 0 0 0 0 0 0 0 0 0 0 0 0 0 0 0
0 0 0 0 0 0 0 0 0 0 0 0 0 0 0 0 0 0 0 0 0 0 0 0 0 0 0 0 0 0 0 0 0 0 0 0 0 0 0 0 0 0 0 0
Wind_Speed
1 3 3 7 7 5 3 4 5 5 4 7 10 16 17 8 10 13 12 12 15 19 15 12 13 13 13 14 14 15 12 11 8 4 4 3 3 3 3 3 5 5 5 5
3 3 6 4 4 4 3 3 4 3 3 5 7 13 14 8 10 13 15 16 18 15 11 12 13 14 16 18 17 16 15 13 11 6 4 4 3 3 3 3 3 5 5 4
4 4 2 2 3 3 3 3 3 3 2 3 5 12 9 5 5 7 10 11 11 16 16 14 15 17 17 19 20 17 16 14 11 8 4 3 2 1 1 2 3 4 4 4
3 2 2 3 4 4 4 2 1 1 2 5 2 7 10 5 6 8 12 12 14 15 14 13 15 16 19 20 17 16 15 13 12 10 7 7 6 5 5 4 3 4 4 4
4 3 4 5 5 4 4 2 1 0 1 4 3 4 13 3 7 12 12 14 16 15 14 14 16 18 18 16 15 14 14 14 12 11 10 8 6 5 3 3 4 4 4 4
5 2 4 5 1 1 2 3 2 4 3 5 6 7 12 7 10 10 9 11 14 14 13 13 11 11 11 12 13 13 15 14 13 12 10 10 9 7 6 5 5 4 3 4
4 3 2 2 2 1 2 4 4 4 2 8 4 5 14 11 10 11 11 12 13 11 11 10 11 12 13 15 16 15 16 14 14 13 12 11 10 9 9 7 6 5 4 4
3 6 4 4 6 5 5 6 6 4 5 7 5 9 13 9 9 9 9 8 8 9 9 11 13 13 15 17 17 17 18 14 15 14 12 10 9 7 6 7 6 6 5 5
5 6 1 2 2 4 4 5 6 5 3 5 9 10 14 6 6 6 8 7 10 11 11 11 10 12 14 16 19 19 19 15 15 14 12 10 9 8 8 7 6 5 5 5
5 5 3 1 1 2 2 4 5 4 4 7 9 8 9 8 9 9 9 11 13 10 9 10 10 12 13 14 15 14 16 16 13 13 12 10 9 9 8 7 7 7 7 6
4 4 3 1 6 8 5 4 5 4 4 5 7 12 9 9 9 11 15 14 13 12 12 12 12 11 10 10 12 14 14 13 12 13 11 10 9 9 8 7 7 7 6 7
4 4 5 8 5 4 7 8 8 6 7 6 5 14 8 9 10 10 12 12 10 11 10 9 9 9 10 13 13 15 15 14 14 13 11 11 9 8 8 8 7 7 7 7
5 4 3 7 2 2 4 6 7 4 3 5 7 16 6 6 8 7 9 10 9 9 9 7 7 10 13 14 15 15 15 15 13 12 12 11 10 9 9 8 7 7 7 6
5 5 8 9 8 5 6 5 7 7 6 8 15 22 19 18 14 10 9 10 9 9 9 8 9 11 12 13 14 15 15 14 13 13 12 12 12 11 9 8 7 7 7 6
4 5 7 10 9 6 8 11 10 14 14 15 18 21 27 23 12 9 10 10 10 10 10 10 12 11 11 12 13 14 14 14 14 14 14 14 11 9 8 8 7 7 6 7
4 4 3 7 9 10 10 16 18 18 16 19 23 26 26 19 9 8 10 10 11 11 11 11 11 11 13 15 15 15 15 15 14 15 14 11 10 9 9 9 8 7 7 6
6 6 3 7 5 5 10 15 18 11 11 11 18 21 17 13 11 10 10 9 10 11 11 11 12 13 14 15 16 17 16 14 15 15 13 12 11 11 10 10 8 8 7 6
10 7 4 4 1 12 13 5 8 10 13 14 16 18 15 11 9 9 9 10 12 11 11 10 10 10 11 11 12 12 12 14 15 15 14 13 12 12 10 9 9 8 6 6
7 8 5 3 6 13 10 9 7 8 11 11 16 19 15 6 6 9 8 8 11 10 10 9 8 8 8 9 11 11 13 14 15 16 15 14 14 12 11 11 11 8 6 7
3 3 4 4 6 12 10 5 1 1 10 7 5 9 6 2 3 7 6 5 6 8 7 7 6 5 7 8 10 13 15 16 19 18 16 15 14 14 13 12 10 8 7 7
4 3 6 8 10 14 10 3 3 5 9 4 2 3 1 5 8 9 9 9 9 9 10 8 7 7 8 7 11 14 16 20 17 13 13 14 14 14 13 10 9 8 7 6
11 9 9 7 8 15 7 6 9 9 4 5 6 5 5 8 11 11 11 11 11 11 11 9 8 10 8 8 12 15 19 16 11 13 14 15 15 13 11 10 9 8 7 6
9 11 9 13 13 7 5 9 7 4 7 9 8 9 8 9 11 12 11 11 11 11 11 9 9 11 8 10 14 18 17 11 13 14 15 13 13 12 11 11 10 8 7 6
7 6 6 9 12 11 9 9 10 11 11 11 11 12 10 11 13 13 12 11 10 11 10 9 8 10 12 11 15 18 11 11 14 15 14 13 13 13 12 10 9 8 8 7
8 5 8 13 11 10 10 9 9 9 10 12 13 12 10 11 12 12 11 11 10 10 9 8 9 11 14 10 13 14 10 13 15 14 14 13 13 12 12 11 10 10 8 8
11 13 16 21 13 13 13 11 13 14 13 12 12 11 10 9 10 10 10 10 9 10 9 9 10 12 13 10 11 11 12 14 15 13 13 11 10 10 10 10 8 14 12 15
Wind_Direction
91 82 217 221 204 216 224 232 260 259 189 188 237 262 272 232 216 231 229 224 226 230 226 211 204 193 185 183 183 182 179 177 166 157 163 174 201 213 234 236 228 220 222 232
39 257 230 196 204 229 238 273 274 283 194 207 269 275 270 232 211 220 223 226 228 234 226 214 202 193 190 189 188 186 185 181 179 173 165 167 168 193 215 228 222 221 226 237
226 240 194 195 227 241 263 241 250 273 341 266 306 299 281 254 221 232 229 227 228 228 227 215 205 200 195 195 192 190 187 182 180 169 148 139 131 171 223 223 227 235 237 243
243 231 203 212 236 197 253 212 192 288 341 292 223 290 287 260 258 247 238 231 234 232 227 216 208 203 202 200 191 188 183 180 177 169 167 167 179 197 212 209 220 242 247 246
261 205 206 224 235 197 217 175 186 176 201 299 241 228 279 271 258 255 242 232 234 232 223 218 211 208 204 193 186 184 179 179 177 176 175 175 189 199 208 216 234 244 248 246
243 212 207 215 183 129 121 64 55 51 71 282 226 187 272 234 218 238 241 231 230 230 223 223 215 201 192 181 181 179 180 182 179 179 179 182 190 196 206 219 231 239 241 248
292 262 229 156 150 57 107 87 354 328 328 256 234 212 250 244 223 218 222 227 227 223 218 216 204 195 188 183 184 183 183 185 183 183 187 190 191 193 204 212 222 228 234 240
284 287 228 202 191 186 188 156 175 234 252 286 289 239 254 255 248 234 234 236 234 226 218 214 206 198 192 188 186 186 188 187 185 189 193 192 190 191 203 209 209 217 225 235
211 263 223 190 202 181 188 208 182 159 256 270 268 278 295 269 261 235 232 237 239 232 223 218 207 197 192 190 191 190 189 188 189 191 191 192 191 193 201 206 210 219 228 239
182 254 269 210 29 254 209 156 115 152 227 263 279 269 254 272 254 244 239 236 241 239 234 225 212 204 198 196 192 190 191 192 188 189 191 195 195 196 198 200 213 221 231 240
174 216 274 278 214 205 167 192 187 183 192 200 264 265 232 239 245 238 237 234 236 233 229 225 218 206 194 187 188 192 193 191 189 191 192 191 191 193 195 204 215 222 231 236
175 149 254 252 238 197 186 198 166 182 235 212 234 266 260 252 262 249 250 250 245 239 234 226 212 192 190 193 194 196 196 196 195 191 189 193 189 189 197 209 217 221 229 234
147 138 306 321 301 231 231 220 195 183 180 210 230 266 270 284 283 264 257 263 262 256 248 231 205 200 202 201 199 199 199 198 192 187 189 192 193 196 203 210 215 218 225 235
125 176 198 225 235 201 222 228 200 183 213 238 235 258 274 275 274 273 267 262 261 256 247 231 221 216 211 205 203 201 201 196 190 188 191 197 200 201 204 205 209 215 222 236
145 222 238 254 262 244 239 246 226 216 223 236 253 255 266 270 273 259 260 267 267 259 246 233 228 224 215 209 207 204 201 195 191 191 196 202 199 194 195 201 207 214 224 240
171 219 259 270 258 245 251 253 246 240 235 242 259 267 265 276 281 270 267 266 266 261 252 242 234 226 219 214 210 205 202 196 191 194 200 197 188 190 197 203 208 216 228 240
189 189 218 265 280 314 261 236 235 225 217 215 244 256 271 279 272 263 262 258 254 257 257 250 239 230 225 217 208 206 202 191 192 197 196 191 189 194 200 204 209 219 227 238
171 171 199 258 287 241 244 235 223 232 245 229 246 262 269 267 277 265 252 253 261 261 261 259 250 240 230 217 207 202 191 191 195 198 195 191 189 195 195 201 214 221 223 234
173 168 194 207 245 269 286 270 216 216 269 240 242 262 276 301 308 293 265 237 244 256 261 263 258 247 232 212 198 189 193 195 199 201 197 192 188 190 193 205 216 218 219 233
98 146 180 198 226 251 252 257 170 122 286 277 237 263 294 56 330 285 305 315 285 281 277 277 277 256 236 212 183 190 199 200 207 204 198 190 188 190 197 206 210 211 216 231
167 189 203 218 236 261 259 256 138 213 253 310 330 294 277 216 235 262 297 299 290 288 285 281 270 253 240 201 185 201 206 213 210 197 189 187 189 193 196 199 202 207 215 227
185 188 204 195 220 255 238 158 197 231 299 309 308 301 287 267 271 280 285 284 286 288 286 279 265 259 242 196 195 211 219 216 193 185 188 189 188 188 190 193 199 204 211 223
207 203 202 202 222 248 194 215 248 287 288 290 292 294 293 284 282 284 282 282 284 281 280 274 261 264 251 210 205 221 225 198 183 187 192 190 187 188 185 188 195 198 204 215
241 226 230 249 256 264 266 256 260 259 261 274 282 286 286 278 280 284 285 286 285 283 281 279 271 264 261 230 218 228 219 185 187 192 192 188 187 187 188 189 193 197 200 208
239 244 252 262 270 282 263 259 271 283 287 288 286 286 285 282 283 283 287 287 285 284 283 279 267 264 265 250 230 226 205 186 192 195 192 190 190 187 189 194 198 199 203 200
232 241 254 266 269 270 280 284 287 288 288 290 294 297 298 293 285 287 287 288 290 292 290 288 279 272 272 261 243 224 202 193 194 195 194 190 187 186 187 189 199 215 211 222